Location: Goettingen
(51.5300°N, 9.9433°E)
Time: 23:13:21
(UTC+01:00)

ISS - Pass Details

Date: 28 March 2017
Orbit: 399 x 409 km, 51.6° (Epoch: 23 March)

Event Time Altitude Azimuth Distance (km) Brightness Sun altitude
Rises 20:57:04 0° 207° (SSW) 2,303 0.1 -11.4°
Reaches altitude 10° 20:59:35 10° 187° (S) 1,450 -1.2 -11.8°
Maximum altitude 21:01:50 18° 143° (SE) 1,084 -2.2 -12.1°
Enters shadow 21:01:53 18° 141° (SE) 1,085 -2.2 -12.1°
